Honolulu, HI (96815)

5:08 PM HST on August 28, 2015 (GMT -1000)
Allure Waikiki | | Change Station
CLOSE
Current Station
Personal Weather Station
Location: Honolulu, HI
Elevation: 39 ft
Nearby Weather Stations

Elev 39 ft 21.29 °N, 157.83 °W | Updated 11 minutes ago

Mostly Cloudy
Mostly Cloudy
86.2 °F
Feels Like 94 °F
N
9.4
Wind Variable Wind from NNE

Today
High -- | Low -- °F
--% Chance of Precip.
Yesterday
High -- | Low -- °F
Precip. -- in
6:13 AM 6:50 PM
Waxing Gibbous, 99% visible
Pressure 29.83 in
Visibility 10.0 miles
Clouds Few 2700 ft
Scattered Clouds 4600 ft
Mostly Cloudy 6500 ft
Mostly Cloudy 25000 ft
Heat Index 94 °F
Dew Point 74 °F
Humidity 66%
Rainfall 0.02 in
Snow Depth Not available.
UV 1 out of 12
Pollen Not available.
Air Quality Not available.
Flu Activity Not available.
METAR PHNL 290253Z COR 02010KT 10SM FEW027CB SCT046 BKN065 BKN250 31/23 A2983 RMK AO2 SLP102 SHRA DSNT NW CB OHD MOV NE T03060228 55006
Pressure 29.83 in
Visibility 10.0 miles
Clouds Few 2700 ft
Scattered Clouds 4600 ft
Mostly Cloudy 6500 ft
Mostly Cloudy 25000 ft
Heat Index 94 °F
Dew Point 74 °F
Humidity 66%
Rainfall 0.02 in
Snow Depth Not available.
UV 1 out of 12
Pollen Not available.
Air Quality Not available.
Flu Activity Not available.
METAR PHNL 290253Z COR 02010KT 10SM FEW027CB SCT046 BKN065 BKN250 31/23 A2983 RMK AO2 SLP102 SHRA DSNT NW CB OHD MOV NE T03060228 55006
The busy hurricane season continues as Hurricane Ignacio may threaten The Big Island Monday. Ignacio is expected to strengthen into a Category 2 hurricane later today, before possibly weakening to a Category 1 storm Monday. The most likely scenario is that storm will pass to the north of Hawaii, there is enough difference is guidance to suggest that residents should prepare for the storm.

10-Day Weather Forecast

×

Almanac

Astronomy

Aug. 28, 2015 Rise Set
Actual Time
Civil Twilight
Nautical Twilight
Astronomical Twilight
Moon
Length of Visible Light
Length of Day
Tomorrow will be .
, % of the Moon is Illuminated

Today's Extremes

State Highs State Lows

Community

WunderPhotos

Upload Photos

1,850,593 photos uploaded!

WunderBlogs® & News

Nearby

Air Quality

  Air Quality AQ Index Pollutant
Not available.

Snow Depth

Station Depth Elevation

Earthquake Activity

City Distance Mag. Time & Date
Minimum magnitude displayed is 2.5.

Coastal Water Temperatures

Place Temperature

Stations

Nearby Weather Stations

Station Location Temp. Windchill Dew Point Humidity Wind Precip. Elev Updated Type